Time,TemperatureF,DewpointF,PressureIn,WindDirection,WindDirectionDegrees,WindSpeedMPH,WindSpeedGustMPH,Humidity,HourlyPrecipIn,Conditions,Clouds,dailyrainin,SolarRadiationWatts/m^2,SoftwareType,DateUTC
2013-04-05 00:00:00,36.6,33.9,30.00,NNE,21,1.0,5.0,90,0.00,RA,SCT,0.00,0.0,WeatherDisplay:10.37,2013-04-05 04:00:00,
2013-04-05 00:05:00,36.6,33.9,30.00,NNE,18,2.0,8.0,90,0.00,RA,SCT,0.00,0.0,WeatherDisplay:10.37,2013-04-05 04:05:00,
2013-04-05 00:10:00,36.6,33.9,30.00,NNE,14,3.0,6.0,90,0.00,,SCT,0.00,0.0,WeatherDisplay:10.37,2013-04-05 04:10:00,
2013-04-05 00:15:00,36.6,33.9,30.00,North,10,3.0,6.0,90,0.00,,SCT,0.00,0.0,WeatherDisplay:10.37,2013-04-05 04:15:00,
2013-04-05 00:30:00,36.6,33.9,29.99,North,4,2.0,6.0,90,0.00,,SCT,0.00,0.0,WeatherDisplay:10.37,2013-04-05 04:30:00,
2013-04-05 00:35:00,36.6,34.0,29.99,North,3,1.0,5.0,90,0.00,,SCT,0.00,0.0,WeatherDisplay:10.37,2013-04-05 04:35:00,
2013-04-05 00:40:00,36.7,34.0,29.99,North,352,2.0,8.0,90,0.00,,SCT,0.00,0.0,WeatherDisplay:10.37,2013-04-05 04:40:00,
2013-04-05 00:45:00,36.7,34.0,29.99,NNW,345,3.0,7.0,90,0.00,,SCT,0.00,0.0,WeatherDisplay:10.37,2013-04-05 04:45:00,
2013-04-05 00:50:00,36.7,34.1,29.99,NNW,344,1.0,7.0,90,0.00,,SCT,0.00,0.0,WeatherDisplay:10.37,2013-04-05 04:50:00,
2013-04-05 00:55:00,36.8,34.1,29.99,NNW,345,0.0,4.0,90,0.00,,SCT,0.00,0.0,WeatherDisplay:10.37,2013-04-05 04:55:00,
2013-04-05 01:05:00,36.8,34.1,29.99,NNW,345,3.0,4.0,90,0.00,,SCT,0.00,0.0,WeatherDisplay:10.37,2013-04-05 05:05:00,
2013-04-05 01:15:00,36.9,34.2,29.99,NNW,345,2.0,6.0,90,0.00,,SCT,0.00,0.0,WeatherDisplay:10.37,2013-04-05 05:15:00,
2013-04-05 01:25:00,37.0,34.6,29.98,North,353,0.0,7.0,91,0.00,,SCT,0.00,0.0,WeatherDisplay:10.37,2013-04-05 05:25:00,
2013-04-05 01:30:00,37.0,34.6,29.98,North,359,1.0,6.0,91,0.00,,SCT,0.00,0.0,WeatherDisplay:10.37,2013-04-05 05:30:00,
2013-04-05 01:35:00,37.1,34.7,29.98,North,357,1.0,7.0,91,0.00,,SCT,0.00,0.0,WeatherDisplay:10.37,2013-04-05 05:35:00,
2013-04-05 01:45:00,37.1,34.7,29.98,North,355,0.0,7.0,91,0.00,,SCT,0.00,0.0,WeatherDisplay:10.37,2013-04-05 05:45:00,
2013-04-05 01:50:00,37.2,34.8,29.98,North,355,1.0,8.0,91,0.00,,SCT,0.00,0.0,WeatherDisplay:10.37,2013-04-05 05:50:00,
2013-04-05 01:55:00,37.2,34.8,29.98,North,355,1.0,3.0,91,0.00,,SCT,0.00,0.0,WeatherDisplay:10.37,2013-04-05 05:55:00,
2013-04-05 02:00:00,37.3,34.9,29.98,North,355,0.0,3.0,91,0.00,,SCT,0.00,0.0,WeatherDisplay:10.37,2013-04-05 06:00:00,
2013-04-05 02:05:00,37.3,34.9,29.98,North,355,2.0,6.0,91,0.00,,SCT,0.00,0.0,WeatherDisplay:10.37,2013-04-05 06:05:00,
2013-04-05 02:10:00,37.3,34.9,29.98,North,355,1.0,2.0,91,0.00,,SCT,0.00,0.0,WeatherDisplay:10.37,2013-04-05 06:10:00,
2013-04-05 02:15:00,37.3,34.9,29.97,North,355,1.0,3.0,91,0.00,,SCT,0.00,0.0,WeatherDisplay:10.37,2013-04-05 06:15:00,
2013-04-05 02:25:00,37.4,35.0,29.97,North,355,1.0,2.0,91,0.00,,SCT,0.00,0.0,WeatherDisplay:10.37,2013-04-05 06:25:00,
2013-04-05 02:30:00,37.4,35.0,29.97,North,355,1.0,3.0,91,0.00,,SCT,0.00,0.0,WeatherDisplay:10.37,2013-04-05 06:30:00,
2013-04-05 02:35:00,37.4,35.1,29.97,North,355,1.0,3.0,91,0.00,,SCT,0.00,0.0,WeatherDisplay:10.37,2013-04-05 06:35:00,
2013-04-05 02:40:00,37.5,35.1,29.97,North,355,0.0,2.0,91,0.00,,SCT,0.00,0.0,WeatherDisplay:10.37,2013-04-05 06:40:00,
2013-04-05 02:45:00,37.5,35.1,29.96,North,355,0.0,1.0,91,0.00,,SCT,0.00,0.0,WeatherDisplay:10.37,2013-04-05 06:45:00,
2013-04-05 02:50:00,37.5,35.1,29.96,North,355,0.0,2.0,91,0.00,,SCT,0.00,0.0,WeatherDisplay:10.37,2013-04-05 06:50:00,
2013-04-05 02:55:00,37.5,35.2,29.96,North,355,0.0,1.0,91,0.00,,SCT,0.00,0.0,WeatherDisplay:10.37,2013-04-05 06:55:00,
2013-04-05 03:00:00,37.6,35.2,29.97,North,355,1.0,8.0,91,0.00,,SCT,0.00,0.0,WeatherDisplay:10.37,2013-04-05 07:00:00,
2013-04-05 03:05:00,37.7,35.3,29.97,North,355,0.0,3.0,91,0.00,,SCT,0.00,0.0,WeatherDisplay:10.37,2013-04-05 07:05:00,
2013-04-05 03:10:00,37.7,35.3,29.96,North,355,0.0,2.0,91,0.00,,SCT,0.00,0.0,WeatherDisplay:10.37,2013-04-05 07:10:00,
2013-04-05 03:15:00,37.7,35.3,29.95,North,355,0.0,3.0,91,0.00,,SCT,0.00,0.0,WeatherDisplay:10.37,2013-04-05 07:15:00,
2013-04-05 03:25:00,37.8,35.4,29.96,North,355,0.0,1.0,91,0.00,,SCT,0.00,0.0,WeatherDisplay:10.37,2013-04-05 07:25:00,
2013-04-05 03:30:00,37.8,35.4,29.96,North,355,0.0,1.0,91,0.00,,SCT,0.00,0.0,WeatherDisplay:10.37,2013-04-05 07:30:00,
2013-04-05 03:40:00,37.9,35.5,29.95,North,355,0.0,2.0,91,0.00,,SCT,0.00,0.0,WeatherDisplay:10.37,2013-04-05 07:40:00,
2013-04-05 03:45:00,37.9,35.5,29.95,North,355,0.0,8.0,91,0.00,,SCT,0.00,0.0,WeatherDisplay:10.37,2013-04-05 07:45:00,
2013-04-05 03:50:00,37.9,35.5,29.96,North,355,0.0,0.0,91,0.00,,SCT,0.00,0.0,WeatherDisplay:10.37,2013-04-05 07:50:00,
2013-04-05 03:55:00,38.0,35.6,29.96,North,355,0.0,0.0,91,0.00,,SCT,0.00,0.0,WeatherDisplay:10.37,2013-04-05 07:55:00,
2013-04-05 04:00:00,38.0,35.6,29.95,North,355,0.0,2.0,91,0.00,,SCT,0.00,0.0,WeatherDisplay:10.37,2013-04-05 08:00:00,
2013-04-05 04:05:00,38.0,35.6,29.96,North,355,0.0,1.0,91,0.00,,SCT,0.00,0.0,WeatherDisplay:10.37,2013-04-05 08:05:00,
2013-04-05 04:10:00,38.1,35.7,29.96,North,355,0.0,8.0,91,0.00,,SCT,0.00,0.0,WeatherDisplay:10.37,2013-04-05 08:10:00,
2013-04-05 04:15:00,38.2,35.8,29.97,North,355,0.0,1.0,91,0.00,,SCT,0.00,0.0,WeatherDisplay:10.37,2013-04-05 08:15:00,
2013-04-05 04:20:00,38.2,35.8,29.96,North,355,0.0,1.0,91,0.00,,SCT,0.00,0.0,WeatherDisplay:10.37,2013-04-05 08:20:00,
2013-04-05 04:25:00,38.3,35.9,29.96,North,355,0.0,8.0,91,0.00,,SCT,0.00,0.0,WeatherDisplay:10.37,2013-04-05 08:25:00,
2013-04-05 04:30:00,38.4,36.0,29.97,North,355,0.0,1.0,91,0.00,,SCT,0.00,0.0,WeatherDisplay:10.37,2013-04-05 08:30:00,
2013-04-05 04:35:00,38.4,36.0,29.97,North,355,0.0,1.0,91,0.00,,SCT,0.00,0.0,WeatherDisplay:10.37,2013-04-05 08:35:00,
2013-04-05 04:40:00,38.5,36.1,29.96,North,355,0.0,1.0,91,0.00,,SCT,0.00,0.0,WeatherDisplay:10.37,2013-04-05 08:40:00,
2013-04-05 04:50:00,38.6,36.2,29.96,North,355,0.0,8.0,91,0.00,,SCT,0.00,0.0,WeatherDisplay:10.37,2013-04-05 08:50:00,
2013-04-05 04:55:00,38.7,36.3,29.96,North,355,0.0,8.0,91,0.00,,SCT,0.00,0.0,WeatherDisplay:10.37,2013-04-05 08:55:00,
2013-04-05 05:00:00,38.7,36.3,29.96,North,355,0.0,1.0,91,0.00,,SCT,0.00,0.0,WeatherDisplay:10.37,2013-04-05 09:00:00,
2013-04-05 05:10:00,38.8,36.4,29.95,North,355,0.0,2.0,91,0.00,,SCT,0.00,0.0,WeatherDisplay:10.37,2013-04-05 09:10:00,
2013-04-05 05:15:00,38.9,36.5,29.95,North,355,0.0,2.0,91,0.00,,SCT,0.00,0.0,WeatherDisplay:10.37,2013-04-05 09:15:00,
2013-04-05 05:25:00,39.0,36.6,29.95,North,355,1.0,8.0,91,0.00,,SCT,0.00,0.0,WeatherDisplay:10.37,2013-04-05 09:25:00,
2013-04-05 05:35:00,39.1,36.7,29.95,North,355,1.0,8.0,91,0.00,,SCT,0.00,0.0,WeatherDisplay:10.37,2013-04-05 09:35:00,
2013-04-05 05:40:00,39.2,36.8,29.95,North,355,1.0,3.0,91,0.00,,SCT,0.00,0.0,WeatherDisplay:10.37,2013-04-05 09:40:00,
2013-04-05 05:45:00,39.3,36.9,29.95,North,355,0.0,3.0,91,0.00,,SCT,0.00,0.0,WeatherDisplay:10.37,2013-04-05 09:45:00,
2013-04-05 05:55:00,39.4,37.0,29.94,North,355,2.0,4.0,91,0.00,,SCT,0.00,0.0,WeatherDisplay:10.37,2013-04-05 09:55:00,
2013-04-05 06:05:00,39.6,37.2,29.94,North,355,2.0,5.0,91,0.00,,SCT,0.00,0.0,WeatherDisplay:10.37,2013-04-05 10:05:00,
2013-04-05 06:15:00,39.8,37.4,29.94,North,355,2.0,5.0,91,0.00,,SCT,0.00,0.0,WeatherDisplay:10.37,2013-04-05 10:15:00,
2013-04-05 06:20:00,40.0,37.6,29.94,North,355,3.0,5.0,91,0.00,,SCT,0.00,0.0,WeatherDisplay:10.37,2013-04-05 10:20:00,
2013-04-05 06:25:00,40.2,37.8,29.94,North,355,2.0,6.0,91,0.00,,SCT,0.00,0.0,WeatherDisplay:10.37,2013-04-05 10:25:00,
2013-04-05 06:30:00,40.4,38.0,29.94,North,355,0.0,4.0,91,0.00,,SCT,0.00,0.0,WeatherDisplay:10.37,2013-04-05 10:30:00,
2013-04-05 06:35:00,40.5,38.1,29.94,North,355,1.0,3.0,91,0.00,,SCT,0.00,0.0,WeatherDisplay:10.37,2013-04-05 10:35:00,
2013-04-05 06:40:00,40.6,38.2,29.94,North,355,1.0,3.0,91,0.00,,SCT,0.00,0.0,WeatherDisplay:10.37,2013-04-05 10:40:00,
2013-04-05 06:45:00,40.7,38.3,29.95,North,355,3.0,5.0,91,0.00,,SCT,0.00,0.0,WeatherDisplay:10.37,2013-04-05 10:45:00,
2013-04-05 06:55:00,41.0,38.9,29.95,North,355,1.0,3.0,92,0.00,,SCT,0.00,0.0,WeatherDisplay:10.37,2013-04-05 10:55:00,
2013-04-05 07:05:00,41.1,39.0,29.95,North,355,0.0,2.0,92,0.00,,SCT,0.00,0.0,WeatherDisplay:10.37,2013-04-05 11:05:00,
2013-04-05 07:15:00,41.1,39.0,29.97,North,355,0.0,8.0,92,0.00,,SCT,0.00,0.0,WeatherDisplay:10.37,2013-04-05 11:15:00,
2013-04-05 07:20:00,41.2,38.8,29.97,North,355,0.0,0.0,91,0.00,,SCT,0.00,5.0,WeatherDisplay:10.37,2013-04-05 11:20:00,
2013-04-05 07:25:00,41.2,38.8,29.97,North,360,0.0,0.0,91,0.00,,SCT,0.00,9.0,WeatherDisplay:10.37,2013-04-05 11:25:00,
2013-04-05 07:30:00,41.2,38.8,29.98,NNE,16,0.0,1.0,91,0.00,,SCT,0.00,9.0,WeatherDisplay:10.37,2013-04-05 11:30:00,
2013-04-05 07:35:00,41.3,38.9,29.98,NE,34,0.0,1.0,91,0.00,,SCT,0.00,11.0,WeatherDisplay:10.37,2013-04-05 11:35:00,
2013-04-05 07:40:00,41.4,38.9,29.98,North,4,0.0,0.0,91,0.00,,SCT,0.00,14.0,WeatherDisplay:10.37,2013-04-05 11:40:00,
2013-04-05 07:45:00,41.4,39.0,29.99,North,350,0.0,8.0,91,0.00,,SCT,0.00,16.0,WeatherDisplay:10.37,2013-04-05 11:45:00,
2013-04-05 07:50:00,41.5,39.3,29.99,North,350,0.0,0.0,92,0.00,,SCT,0.00,21.0,WeatherDisplay:10.37,2013-04-05 11:50:00,
2013-04-05 07:55:00,41.5,39.3,29.99,North,351,0.0,1.0,92,0.00,BKN,SCT,0.00,26.0,WeatherDisplay:10.37,2013-04-05 11:55:00,
2013-04-05 08:00:00,41.6,39.4,29.99,NNW,328,0.0,8.0,92,0.00,BKN,SCT,0.00,30.0,WeatherDisplay:10.37,2013-04-05 12:00:00,
2013-04-05 08:05:00,41.7,39.5,29.98,NW,323,0.0,0.0,92,0.00,BKN,SCT,0.00,40.0,WeatherDisplay:10.37,2013-04-05 12:05:00,
2013-04-05 08:10:00,41.8,39.6,29.98,NNW,342,0.0,1.0,92,0.00,BKN,SCT,0.00,42.0,WeatherDisplay:10.37,2013-04-05 12:10:00,
2013-04-05 08:15:00,41.9,39.7,29.99,NNE,14,0.0,0.0,92,0.00,BKN,SCT,0.00,40.0,WeatherDisplay:10.37,2013-04-05 12:15:00,
2013-04-05 08:20:00,42.0,39.8,29.99,NNE,12,0.0,0.0,92,0.00,BKN,SCT,0.00,46.0,WeatherDisplay:10.37,2013-04-05 12:20:00,
2013-04-05 08:25:00,42.1,39.9,29.99,North,11,0.0,8.0,92,0.00,BKN,SCT,0.00,53.0,WeatherDisplay:10.37,2013-04-05 12:25:00,
2013-04-05 08:30:00,42.2,40.0,29.99,North,11,0.0,0.0,92,0.00,BKN,SCT,0.00,60.0,WeatherDisplay:10.37,2013-04-05 12:30:00,
2013-04-05 08:40:00,42.5,40.3,29.99,North,11,1.0,8.0,92,0.00,BKN,SCT,0.00,118.0,WeatherDisplay:10.37,2013-04-05 12:40:00,
2013-04-05 08:45:00,42.8,40.6,30.00,North,11,1.0,3.0,92,0.00,BKN,SCT,0.00,100.0,WeatherDisplay:10.37,2013-04-05 12:45:00,
2013-04-05 08:50:00,42.9,40.7,30.00,North,11,1.0,3.0,92,0.00,BKN,SCT,0.00,109.0,WeatherDisplay:10.37,2013-04-05 12:50:00,
2013-04-05 09:00:00,43.3,41.1,30.00,North,11,1.0,3.0,92,0.00,BKN,SCT,0.00,107.0,WeatherDisplay:10.37,2013-04-05 13:00:00,
2013-04-05 09:05:00,43.5,41.3,30.00,North,11,1.0,4.0,92,0.00,BKN,SCT,0.00,127.0,WeatherDisplay:10.37,2013-04-05 13:05:00,
2013-04-05 09:10:00,43.6,41.5,30.01,North,11,1.0,4.0,92,0.00,BKN,SCT,0.00,102.0,WeatherDisplay:10.37,2013-04-05 13:10:00,
2013-04-05 09:15:00,43.8,41.6,30.01,North,358,1.0,3.0,92,0.00,BKN,SCT,0.00,95.0,WeatherDisplay:10.37,2013-04-05 13:15:00,
2013-04-05 09:20:00,43.9,41.7,30.01,NW,320,1.0,8.0,92,0.00,BKN,SCT,0.00,102.0,WeatherDisplay:10.37,2013-04-05 13:20:00,
2013-04-05 09:25:00,44.1,41.9,30.01,WNW,300,0.0,1.0,92,0.00,BKN,SCT,0.00,107.0,WeatherDisplay:10.37,2013-04-05 13:25:00,
2013-04-05 09:30:00,44.2,42.0,30.01,NW,310,0.0,1.0,92,0.00,BKN,SCT,0.00,139.0,WeatherDisplay:10.37,2013-04-05 13:30:00,
2013-04-05 09:35:00,44.4,42.2,30.01,NNW,347,0.0,2.0,92,0.00,BKN,SCT,0.00,176.0,WeatherDisplay:10.37,2013-04-05 13:35:00,
2013-04-05 09:40:00,44.5,42.3,30.00,North,355,0.0,3.0,92,0.00,BKN,SCT,0.00,216.0,WeatherDisplay:10.37,2013-04-05 13:40:00,
2013-04-05 09:45:00,44.7,42.5,30.00,North,355,0.0,3.0,92,0.00,SCT,SCT,0.00,220.0,WeatherDisplay:10.37,2013-04-05 13:45:00,
2013-04-05 09:50:00,44.9,42.8,30.00,North,355,0.0,2.0,92,0.00,SCT,SCT,0.00,200.0,WeatherDisplay:10.37,2013-04-05 13:50:00,
2013-04-05 09:55:00,45.1,42.9,30.01,North,355,0.0,8.0,92,0.00,BKN,SCT,0.00,213.0,WeatherDisplay:10.37,2013-04-05 13:55:00,
2013-04-05 10:00:00,45.4,43.2,30.00,North,355,1.0,3.0,92,0.00,BKN,SCT,0.00,195.0,WeatherDisplay:10.37,2013-04-05 14:00:00,
2013-04-05 10:05:00,45.5,43.3,30.01,North,350,1.0,3.0,92,0.00,BKN,SCT,0.00,258.0,WeatherDisplay:10.37,2013-04-05 14:05:00,
2013-04-05 10:15:00,46.2,44.0,30.01,NNW,345,2.0,5.0,92,0.00,SCT,SCT,0.00,360.0,WeatherDisplay:10.37,2013-04-05 14:15:00,
2013-04-05 10:20:00,46.4,44.2,30.01,NNW,345,1.0,5.0,92,0.00,SCT,SCT,0.00,392.0,WeatherDisplay:10.37,2013-04-05 14:20:00,
2013-04-05 10:25:00,47.0,44.8,30.01,NNW,340,3.0,6.0,92,0.00,SCT,SCT,0.00,469.0,WeatherDisplay:10.37,2013-04-05 14:25:00,
2013-04-05 10:30:00,47.5,45.3,30.01,NNW,334,3.0,6.0,92,0.00,SCT,SCT,0.00,322.0,WeatherDisplay:10.37,2013-04-05 14:30:00,
2013-04-05 10:40:00,47.9,45.4,30.01,NNW,332,1.0,6.0,91,0.00,SCT,SCT,0.00,262.0,WeatherDisplay:10.37,2013-04-05 14:40:00,
2013-04-05 10:45:00,48.1,45.6,30.01,NW,323,1.0,4.0,91,0.00,BKN,SCT,0.00,287.0,WeatherDisplay:10.37,2013-04-05 14:45:00,
2013-04-05 10:55:00,48.5,45.4,30.01,WNW,294,1.0,4.0,89,0.00,BKN,SCT,0.00,373.0,WeatherDisplay:10.37,2013-04-05 14:55:00,
2013-04-05 11:00:00,48.8,45.1,30.00,NW,305,1.0,6.0,87,0.00,SCT,SCT,0.00,462.0,WeatherDisplay:10.37,2013-04-05 15:00:00,
2013-04-05 11:05:00,49.3,45.6,30.00,NNW,332,6.0,8.0,87,0.00,SCT,SCT,0.00,524.0,WeatherDisplay:10.37,2013-04-05 15:05:00,
2013-04-05 11:15:00,50.1,44.8,30.00,NNW,343,3.0,7.0,82,0.00,SCT,SCT,0.00,652.0,WeatherDisplay:10.37,2013-04-05 15:15:00,
2013-04-05 11:25:00,51.4,46.1,30.00,NNW,347,5.0,9.0,82,0.00,FEW,SCT,0.00,921.0,WeatherDisplay:10.37,2013-04-05 15:25:00,
2013-04-05 11:35:00,52.6,45.9,30.00,North,2,6.0,9.0,78,0.00,CLR,SCT,0.00,867.0,WeatherDisplay:10.37,2013-04-05 15:35:00,
2013-04-05 11:40:00,53.1,46.0,30.00,NNW,341,5.0,15.0,77,0.00,CLR,SCT,0.00,867.0,WeatherDisplay:10.37,2013-04-05 15:40:00,
2013-04-05 11:45:00,53.5,45.8,30.00,NNW,342,7.0,12.0,75,0.00,CLR,SCT,0.00,916.0,WeatherDisplay:10.37,2013-04-05 15:45:00,
2013-04-05 11:55:00,54.1,45.2,30.00,NNE,12,7.0,15.0,72,0.00,CLR,SCT,0.00,867.0,WeatherDisplay:10.37,2013-04-05 15:55:00,
2013-04-05 12:05:00,54.5,46.0,29.99,NNE,23,6.0,12.0,73,0.00,CLR,SCT,0.00,891.0,WeatherDisplay:10.37,2013-04-05 16:05:00,
2013-04-05 12:10:00,55.0,46.5,29.99,North,7,6.0,12.0,73,0.00,CLR,SCT,0.00,942.0,WeatherDisplay:10.37,2013-04-05 16:10:00,
2013-04-05 12:15:00,55.7,46.4,29.99,North,8,5.0,13.0,71,0.00,CLR,SCT,0.00,912.0,WeatherDisplay:10.37,2013-04-05 16:15:00,
2013-04-05 12:20:00,56.1,45.7,29.99,North,0,9.0,16.0,68,0.00,CLR,SCT,0.00,912.0,WeatherDisplay:10.37,2013-04-05 16:20:00,
2013-04-05 12:30:00,56.5,46.1,29.99,NNW,331,6.0,10.0,68,0.00,CLR,SCT,0.00,935.0,WeatherDisplay:10.37,2013-04-05 16:30:00,
2013-04-05 12:35:00,56.8,46.0,29.99,North,358,7.0,12.0,67,0.00,CLR,SCT,0.00,933.0,WeatherDisplay:10.37,2013-04-05 16:35:00,
2013-04-05 12:40:00,57.0,45.7,29.98,North,6,5.0,16.0,66,0.00,CLR,SCT,0.00,935.0,WeatherDisplay:10.37,2013-04-05 16:40:00,
2013-04-05 12:50:00,57.2,44.7,29.98,NNW,346,8.0,16.0,63,0.00,CLR,SCT,0.00,946.0,WeatherDisplay:10.37,2013-04-05 16:50:00,
2013-04-05 12:55:00,57.1,45.0,29.98,NNW,331,5.0,16.0,64,0.00,CLR,SCT,0.00,946.0,WeatherDisplay:10.37,2013-04-05 16:55:00,
2013-04-05 13:05:00,58.0,45.9,29.97,North,353,3.0,12.0,64,0.00,CLR,SCT,0.00,954.0,WeatherDisplay:10.37,2013-04-05 17:05:00,
2013-04-05 13:10:00,58.4,45.8,29.97,North,356,1.0,5.0,63,0.00,CLR,SCT,0.00,956.0,WeatherDisplay:10.37,2013-04-05 17:10:00,
2013-04-05 13:15:00,58.7,46.6,29.97,North,352,6.0,12.0,64,0.00,CLR,SCT,0.00,958.0,WeatherDisplay:10.37,2013-04-05 17:15:00,
2013-04-05 13:20:00,59.0,47.2,29.97,North,358,2.0,16.0,65,0.00,CLR,SCT,0.00,981.0,WeatherDisplay:10.37,2013-04-05 17:20:00,
2013-04-05 13:25:00,59.0,45.2,29.96,North,353,6.0,12.0,60,0.00,CLR,SCT,0.00,983.0,WeatherDisplay:10.37,2013-04-05 17:25:00,
2013-04-05 13:30:00,59.1,45.2,29.96,North,350,5.0,8.0,60,0.00,CLR,SCT,0.00,983.0,WeatherDisplay:10.37,2013-04-05 17:30:00,
2013-04-05 13:40:00,59.5,46.1,29.96,North,357,3.0,9.0,61,0.00,CLR,SCT,0.00,1035.0,WeatherDisplay:10.37,2013-04-05 17:40:00,
2013-04-05 13:45:00,59.6,44.8,29.96,NNW,342,3.0,12.0,58,0.00,CLR,SCT,0.00,243.0,WeatherDisplay:10.37,2013-04-05 17:45:00,
2013-04-05 13:50:00,59.5,45.1,29.96,NNW,346,5.0,9.0,59,0.00,SCT,SCT,0.00,209.0,WeatherDisplay:10.37,2013-04-05 17:50:00,
2013-04-05 13:55:00,59.4,46.4,29.95,North,358,2.0,5.0,62,0.00,BKN,SCT,0.00,309.0,WeatherDisplay:10.37,2013-04-05 17:55:00,
2013-04-05 14:05:00,59.6,45.6,29.95,West,274,1.0,7.0,60,0.00,BKN,SCT,0.00,229.0,WeatherDisplay:10.37,2013-04-05 18:05:00,
2013-04-05 14:10:00,59.7,45.8,29.95,NW,321,6.0,10.0,60,0.00,SCT,SCT,0.00,1056.0,WeatherDisplay:10.37,2013-04-05 18:10:00,
2013-04-05 14:20:00,60.5,46.1,29.95,WNW,297,2.0,8.0,59,0.00,CLR,SCT,0.00,285.0,WeatherDisplay:10.37,2013-04-05 18:20:00,
2013-04-05 14:30:00,61.4,45.6,29.95,North,7,3.0,8.0,56,0.00,CLR,SCT,0.00,1063.0,WeatherDisplay:10.37,2013-04-05 18:30:00,
2013-04-05 14:35:00,61.6,45.3,29.95,NNE,12,0.0,5.0,55,0.00,FEW,SCT,0.00,276.0,WeatherDisplay:10.37,2013-04-05 18:35:00,
2013-04-05 14:40:00,61.8,46.4,29.94,North,3,5.0,8.0,57,0.00,SCT,SCT,0.00,1127.0,WeatherDisplay:10.37,2013-04-05 18:40:00,
2013-04-05 14:45:00,62.1,46.2,29.94,WNW,291,0.0,10.0,56,0.00,CLR,SCT,0.00,1035.0,WeatherDisplay:10.37,2013-04-05 18:45:00,
2013-04-05 14:50:00,62.7,46.3,29.94,West,267,3.0,16.0,55,0.00,CLR,SCT,0.00,1018.0,WeatherDisplay:10.37,2013-04-05 18:50:00,
2013-04-05 15:05:00,62.7,45.3,29.94,NW,322,5.0,8.0,53,0.00,CLR,SCT,0.00,935.0,WeatherDisplay:10.37,2013-04-05 19:05:00,
2013-04-05 15:15:00,63.4,45.5,29.93,West,264,1.0,4.0,52,0.00,CLR,SCT,0.00,939.0,WeatherDisplay:10.37,2013-04-05 19:15:00,
2013-04-05 15:20:00,64.0,45.5,29.93,West,270,1.0,5.0,51,0.00,CLR,SCT,0.00,900.0,WeatherDisplay:10.37,2013-04-05 19:20:00,
2013-04-05 15:25:00,64.6,46.0,29.93,West,268,1.0,5.0,51,0.00,CLR,SCT,0.00,900.0,WeatherDisplay:10.37,2013-04-05 19:25:00,
2013-04-05 15:30:00,64.7,46.1,29.93,SW,233,2.0,8.0,51,0.00,CLR,SCT,0.00,916.0,WeatherDisplay:10.37,2013-04-05 19:30:00,
2013-04-05 15:40:00,63.5,44.5,29.92,NE,55,2.0,8.0,50,0.00,FEW,SCT,0.00,162.0,WeatherDisplay:10.37,2013-04-05 19:40:00,
2013-04-05 15:45:00,63.1,43.1,29.92,ENE,58,2.0,7.0,48,0.00,BKN,SCT,0.00,120.0,WeatherDisplay:10.37,2013-04-05 19:45:00,
2013-04-05 15:55:00,63.5,40.5,29.92,NNE,19,5.0,9.0,43,0.00,CLR,SCT,0.00,796.0,WeatherDisplay:10.37,2013-04-05 19:55:00,
2013-04-05 16:05:00,64.2,40.6,29.92,NNW,335,5.0,9.0,42,0.00,CLR,SCT,0.00,766.0,WeatherDisplay:10.37,2013-04-05 20:05:00,
2013-04-05 16:15:00,64.9,38.0,29.92,North,359,2.0,9.0,37,0.00,CLR,SCT,0.00,738.0,WeatherDisplay:10.37,2013-04-05 20:15:00,
2013-04-05 16:20:00,65.0,39.5,29.92,North,357,6.0,16.0,39,0.00,CLR,SCT,0.00,726.0,WeatherDisplay:10.37,2013-04-05 20:20:00,
2013-04-05 16:25:00,65.1,35.3,29.92,NNW,345,6.0,12.0,33,0.00,CLR,SCT,0.00,719.0,WeatherDisplay:10.37,2013-04-05 20:25:00,
2013-04-05 16:30:00,65.2,34.6,29.92,NNW,331,5.0,12.0,32,0.00,CLR,SCT,0.00,698.0,WeatherDisplay:10.37,2013-04-05 20:30:00,
2013-04-05 16:35:00,65.2,33.0,29.92,NW,321,2.0,12.0,30,0.00,CLR,SCT,0.00,684.0,WeatherDisplay:10.37,2013-04-05 20:35:00,
2013-04-05 16:40:00,65.2,30.3,29.92,NNW,336,8.0,13.0,27,0.00,CLR,SCT,0.00,668.0,WeatherDisplay:10.37,2013-04-05 20:40:00,
2013-04-05 16:50:00,65.0,30.2,29.92,NNW,335,5.0,10.0,27,0.00,CLR,SCT,0.00,635.0,WeatherDisplay:10.37,2013-04-05 20:50:00,
2013-04-05 16:55:00,65.2,31.2,29.92,North,356,3.0,8.0,28,0.00,CLR,SCT,0.00,615.0,WeatherDisplay:10.37,2013-04-05 20:55:00,
2013-04-05 17:05:00,65.0,31.9,29.92,NW,322,2.0,10.0,29,0.00,CLR,SCT,0.00,578.0,WeatherDisplay:10.37,2013-04-05 21:05:00,
2013-04-05 17:10:00,65.2,33.0,29.92,NNW,329,3.0,9.0,30,0.00,CLR,SCT,0.00,557.0,WeatherDisplay:10.37,2013-04-05 21:10:00,
2013-04-05 17:15:00,65.4,33.1,29.92,North,9,5.0,7.0,30,0.00,CLR,SCT,0.00,541.0,WeatherDisplay:10.37,2013-04-05 21:15:00,
2013-04-05 17:20:00,65.3,31.3,29.92,NNE,22,6.0,9.0,28,0.00,CLR,SCT,0.00,524.0,WeatherDisplay:10.37,2013-04-05 21:20:00,
2013-04-05 17:25:00,65.3,33.0,29.93,NNE,20,3.0,16.0,30,0.00,CLR,SCT,0.00,504.0,WeatherDisplay:10.37,2013-04-05 21:25:00,
2013-04-05 17:35:00,65.4,36.3,29.93,North,359,3.0,8.0,34,0.00,CLR,SCT,0.00,469.0,WeatherDisplay:10.37,2013-04-05 21:35:00,
2013-04-05 17:40:00,65.4,34.8,29.93,North,0,6.0,12.0,32,0.00,CLR,SCT,0.00,452.0,WeatherDisplay:10.37,2013-04-05 21:40:00,
2013-04-05 17:45:00,65.3,34.7,29.93,North,8,7.0,10.0,32,0.00,CLR,SCT,0.00,434.0,WeatherDisplay:10.37,2013-04-05 21:45:00,
2013-04-05 17:55:00,65.0,32.8,29.93,NNE,27,7.0,13.0,30,0.00,CLR,SCT,0.00,404.0,WeatherDisplay:10.37,2013-04-05 21:55:00,
2013-04-05 18:05:00,64.9,33.5,29.94,NNW,345,6.0,12.0,31,0.00,CLR,SCT,0.00,362.0,WeatherDisplay:10.37,2013-04-05 22:05:00,
2013-04-05 18:10:00,64.9,34.3,29.94,NNW,345,6.0,12.0,32,0.00,CLR,SCT,0.00,345.0,WeatherDisplay:10.37,2013-04-05 22:10:00,
2013-04-05 18:15:00,64.8,34.2,29.94,North,358,5.0,12.0,32,0.00,CLR,SCT,0.00,323.0,WeatherDisplay:10.37,2013-04-05 22:15:00,
2013-04-05 18:20:00,64.6,34.0,29.94,North,359,7.0,12.0,32,0.00,CLR,SCT,0.00,304.0,WeatherDisplay:10.37,2013-04-05 22:20:00,
2013-04-05 18:35:00,64.2,35.2,29.95,North,355,2.0,8.0,34,0.00,CLR,SCT,0.00,250.0,WeatherDisplay:10.37,2013-04-05 22:35:00,
2013-04-05 18:40:00,64.1,35.1,29.95,North,352,6.0,16.0,34,0.00,CLR,SCT,0.00,230.0,WeatherDisplay:10.37,2013-04-05 22:40:00,
2013-04-05 18:45:00,64.0,35.0,29.95,NNE,14,5.0,9.0,34,0.00,CLR,SCT,0.00,211.0,WeatherDisplay:10.37,2013-04-05 22:45:00,
2013-04-05 18:55:00,63.5,35.3,29.95,NNE,13,3.0,8.0,35,0.00,CLR,SCT,0.00,171.0,WeatherDisplay:10.37,2013-04-05 22:55:00,
2013-04-05 19:05:00,63.2,35.8,29.96,North,353,2.0,6.0,36,0.00,CLR,SCT,0.00,139.0,WeatherDisplay:10.37,2013-04-05 23:05:00,
2013-04-05 19:15:00,63.0,37.0,29.96,North,355,1.0,5.0,38,0.00,CLR,SCT,0.00,102.0,WeatherDisplay:10.37,2013-04-05 23:15:00,
2013-04-05 19:25:00,62.7,36.7,29.96,North,355,1.0,6.0,38,0.00,CLR,SCT,0.00,62.0,WeatherDisplay:10.37,2013-04-05 23:25:00,
2013-04-05 19:30:00,62.4,36.5,29.96,North,355,1.0,16.0,38,0.00,CLR,SCT,0.00,46.0,WeatherDisplay:10.37,2013-04-05 23:30:00,
2013-04-05 19:35:00,62.2,36.3,29.97,North,355,1.0,2.0,38,0.00,CLR,SCT,0.00,33.0,WeatherDisplay:10.37,2013-04-05 23:35:00,
2013-04-05 19:45:00,61.6,36.4,29.97,North,355,0.0,3.0,39,0.00,CLR,SCT,0.00,9.0,WeatherDisplay:10.37,2013-04-05 23:45:00,
2013-04-05 19:50:00,61.4,36.8,29.97,North,355,0.0,1.0,40,0.00,CLR,SCT,0.00,5.0,WeatherDisplay:10.37,2013-04-05 23:50:00,
2013-04-05 19:55:00,61.0,37.1,29.97,North,355,0.0,1.0,41,0.00,CLR,SCT,0.00,0.0,WeatherDisplay:10.37,2013-04-05 23:55:00,
2013-04-05 20:05:00,60.4,37.8,29.98,North,355,0.0,1.0,43,0.00,CLR,SCT,0.00,0.0,WeatherDisplay:10.37,2013-04-06 00:05:00,
2013-04-05 20:10:00,60.0,37.4,29.98,North,355,0.0,0.0,43,0.00,CLR,SCT,0.00,0.0,WeatherDisplay:10.37,2013-04-06 00:10:00,
2013-04-05 20:20:00,58.8,38.0,29.99,North,355,0.0,0.0,46,0.00,CLR,SCT,0.00,0.0,WeatherDisplay:10.37,2013-04-06 00:20:00,
2013-04-05 20:25:00,58.0,37.3,29.99,North,355,0.0,16.0,46,0.00,CLR,SCT,0.00,0.0,WeatherDisplay:10.37,2013-04-06 00:25:00,
2013-04-05 20:30:00,57.1,37.6,29.99,North,355,0.0,0.0,48,0.00,CLR,SCT,0.00,0.0,WeatherDisplay:10.37,2013-04-06 00:30:00,
2013-04-05 20:35:00,56.4,37.9,29.99,North,355,0.0,0.0,50,0.00,CLR,SCT,0.00,0.0,WeatherDisplay:10.37,2013-04-06 00:35:00,
2013-04-05 20:40:00,55.7,37.8,30.00,North,355,0.0,1.0,51,0.00,CLR,SCT,0.00,0.0,WeatherDisplay:10.37,2013-04-06 00:40:00,
2013-04-05 20:50:00,54.5,37.7,30.00,North,355,0.0,16.0,53,0.00,CLR,SCT,0.00,0.0,WeatherDisplay:10.37,2013-04-06 00:50:00,
2013-04-05 21:00:00,53.5,38.2,30.01,North,355,0.0,16.0,56,0.00,CLR,SCT,0.00,0.0,WeatherDisplay:10.37,2013-04-06 01:00:00,
2013-04-05 21:05:00,52.8,37.5,30.01,North,355,0.0,0.0,56,0.00,CLR,SCT,0.00,0.0,WeatherDisplay:10.37,2013-04-06 01:05:00,
2013-04-05 21:10:00,52.4,37.1,30.01,North,355,0.0,0.0,56,0.00,CLR,SCT,0.00,0.0,WeatherDisplay:10.37,2013-04-06 01:10:00,
2013-04-05 21:20:00,51.7,36.9,30.02,North,355,0.0,0.0,57,0.00,CLR,SCT,0.00,0.0,WeatherDisplay:10.37,2013-04-06 01:20:00,
2013-04-05 21:25:00,51.4,37.1,30.02,North,355,0.0,0.0,58,0.00,CLR,SCT,0.00,0.0,WeatherDisplay:10.37,2013-04-06 01:25:00,
2013-04-05 21:35:00,50.2,37.2,30.03,North,355,0.0,1.0,61,0.00,CLR,SCT,0.00,0.0,WeatherDisplay:10.37,2013-04-06 01:35:00,
2013-04-05 21:45:00,49.3,37.3,30.03,North,355,0.0,1.0,63,0.00,CLR,SCT,0.00,0.0,WeatherDisplay:10.37,2013-04-06 01:45:00,
2013-04-05 21:50:00,49.1,37.8,30.03,North,355,0.0,1.0,65,0.00,CLR,SCT,0.00,0.0,WeatherDisplay:10.37,2013-04-06 01:50:00,
2013-04-05 21:55:00,48.8,37.9,30.03,North,355,0.0,1.0,66,0.00,CLR,SCT,0.00,0.0,WeatherDisplay:10.37,2013-04-06 01:55:00,
2013-04-05 22:05:00,48.1,37.3,30.03,North,355,0.0,0.0,66,0.00,CLR,SCT,0.00,0.0,WeatherDisplay:10.37,2013-04-06 02:05:00,
2013-04-05 22:20:00,47.1,37.1,30.04,North,355,0.0,0.0,68,0.00,CLR,SCT,0.00,0.0,WeatherDisplay:10.37,2013-04-06 02:20:00,
2013-04-05 22:25:00,46.9,36.9,30.04,North,355,0.0,0.0,68,0.00,CLR,SCT,0.00,0.0,WeatherDisplay:10.37,2013-04-06 02:25:00,
2013-04-05 22:35:00,46.6,36.9,30.05,North,355,0.0,16.0,69,0.00,CLR,SCT,0.00,0.0,WeatherDisplay:10.37,2013-04-06 02:35:00,
2013-04-05 22:45:00,46.2,36.2,30.05,North,355,0.0,0.0,68,0.00,CLR,SCT,0.00,0.0,WeatherDisplay:10.37,2013-04-06 02:45:00,
2013-04-05 22:50:00,46.0,36.4,30.05,North,355,0.0,0.0,69,0.00,CLR,SCT,0.00,0.0,WeatherDisplay:10.37,2013-04-06 02:50:00,
2013-04-05 22:55:00,45.8,36.6,30.05,North,355,0.0,1.0,70,0.00,CLR,SCT,0.00,0.0,WeatherDisplay:10.37,2013-04-06 02:55:00,
2013-04-05 23:00:00,45.5,36.7,30.05,North,355,0.0,1.0,71,0.00,CLR,SCT,0.00,0.0,WeatherDisplay:10.37,2013-04-06 03:00:00,
2013-04-05 23:10:00,45.2,36.7,30.05,North,355,0.0,0.0,72,0.00,CLR,SCT,0.00,0.0,WeatherDisplay:10.37,2013-04-06 03:10:00,
2013-04-05 23:20:00,44.9,36.1,30.05,North,355,0.0,0.0,71,0.00,CLR,SCT,0.00,0.0,WeatherDisplay:10.37,2013-04-06 03:20:00,
2013-04-05 23:25:00,45.0,36.1,30.05,North,355,0.0,0.0,71,0.00,CLR,SCT,0.00,0.0,WeatherDisplay:10.37,2013-04-06 03:25:00,
2013-04-05 23:35:00,45.0,35.8,30.05,North,355,0.0,16.0,70,0.00,CLR,SCT,0.00,0.0,WeatherDisplay:10.37,2013-04-06 03:35:00,
2013-04-05 23:40:00,45.0,36.1,30.05,North,355,0.0,0.0,71,0.00,CLR,SCT,0.00,0.0,WeatherDisplay:10.37,2013-04-06 03:40:00,
2013-04-05 23:50:00,44.9,35.7,30.05,North,355,0.0,16.0,70,0.00,CLR,SCT,0.00,0.0,WeatherDisplay:10.37,2013-04-06 03:50:00,
2013-04-05 23:55:00,44.8,36.3,30.05,North,355,0.0,1.0,72,0.00,CLR,SCT,0.00,0.0,WeatherDisplay:10.37,2013-04-06 03:55:00,